Regional Weather Roundup
Issued by NWS Northern Indiana

Home | Current Version | Previous Version | Graphics & Text | Print | Product List | Glossary On
Versions: 1 2 3 4 5 6 7 8 9 10 11 12 13 14 15 16 17 18 19 20 21 22 23 24 25 26 27 28 29 30 31 32 33 34 35 36 37 38 39 40 41 42 43 44 45 46 47 48 49 50
000
ASUS43 KIWX 260100
RWRIWX

KIWX WEATHER ROUNDUP
NATIONAL WEATHER SERVICE NORTHERN INDIANA
900 PM EDT THU MAY 25 2017

NOTE: "FAIR" INDICATES FEW OR NO CLOUDS BELOW 12,000 FEET WITH NO
SIGNIFICANT WEATHER AND/OR OBSTRUCTIONS TO VISIBILITY.

* THESE STATIONS ARE NOT UNDER NWS QUALITY CONTROL. THEY ALSO MAY NOT
  REPORT WEATHER SUCH AS PRECIPITATION OR FOG.

INZ001>027-260200-
NORTHERN INDIANA

CITY           SKY/WX    TMP DP  RH WIND       PRES   REMARKS
GARY*          PTCLDY    57  52  82 CALM      29.72R
MICHIGAN CITY* PTCLDY    50  50 100 CALM      29.70S
SOUTH BEND     CLEAR     53  51  93 NW8       29.68R
ELKHART*       CLEAR     57  52  82 W8        29.66R
GOSHEN         PTCLDY    59  52  77 W9        29.65R
MONTICELLO*    PTCLDY    59  55  85 W3        29.70R
FORT WAYNE     CLOUDY    60  55  83 W14       29.65R
PERU/GRISSOM   CLEAR     60  56  85 W8        29.67R

$$
INZ028>050-260200-
CENTRAL INDIANA

CITY           SKY/WX    TMP DP  RH WIND       PRES   REMARKS
LAFAYETTE      CLEAR     61  56  83 W7        29.70R
KOKOMO*        CLEAR     60  55  83 W12       29.70R
MUNCIE*        CLOUDY    62  55  77 W7        29.69R
INDIANAPOLIS   MOCLDY    62  55  77 W12       29.72R

$$
MIZ043>046-050>051-056>058-064>065-071>073-077>080-260200-
SOUTHWEST LOWER MICHIGAN

CITY           SKY/WX    TMP DP  RH WIND       PRES   REMARKS
BATTLE CREEK   PTCLDY    60  57  89 W8        29.62R
BENTON HARBOR  CLEAR     51  48  89 W6        29.67R
COLDWATER*     CLOUDY    61  58  89 W7        29.62R
HILLSDALE*     DRIZZLE   59  54  82 NW7       29.61R
HOLLAND        CLEAR     60  52  74 NW6       29.64R
GRAND RAPIDS   MOCLDY    64  54  69 N9        29.61R
KALAMAZOO      CLEAR     61  53  75 W5        29.63R
STURGIS*       CLOUDY    60  55  84 W9        29.63R
THREE RIVERS*  FAIR      60  54  81 W12       29.64R

$$
OHZ001>008-015>018-024>025-260200-
NORTHWEST OHIO

CITY           SKY/WX    TMP DP  RH WIND       PRES   REMARKS
DEFIANCE       CLOUDY    61  56  83 W9        29.61R
FINDLAY        CLOUDY    63  55  75 NW10      29.59R
TOLEDO EXPRESS CLOUDY    61  56  83 W10       29.58R
TOLEDO METCALF CLOUDY    63  57  81 NW10      29.58R
LIMA           CLOUDY    61  58  90 W13       29.62R

$$
AND FOR LAKE MICHIGAN COASTAL AND OPEN LAKE BUOY OBSERVATIONS

STATION/POSITION TEMP    WIND        PRES    VSBY  WAVE
                 AIR SEA DIR/SP/G                  HT/PER
                 (F)     (DEG/KT/KT) (MB)    (MI)  (FT/S)
CALUMET HARBOR    56     340/  5/  8 1005.4R
MICHIGAN CITY     51     310/  6/  9   N/A
BURNS HARBOR      54     330/  1/  4 1006.4R
SOUTH LAKE BUOY   48 45  350/  8/ 10 1004.4          3/ 5
4 MI NW BRIDGMAN  53 55  330/  4/  6 1005.4R         3/ 5
MICHIGAN CITY     50 51  310/  2/  4   N/A           3/ 5

$$
&&




USA.gov is the U.S. government's official web portal to all federal, state and local government web resources and services.